Flag for Iceland Weather past 2 weeks in Reykjavik, Iceland

Now
46 °F

Sunny.


Feels Like: 45 °F
Forecast: 46 / 54 °F
Wind: 3 mph from Southeast

Location: Reykjavik Airport

Current Time: Aug 1, 2014 at 7:51:04 AM

Latest Report: Aug 1, 2014 at 7:00 AM


Visibility: 10 mi

Pressure: 29.95 "Hg

Humidity: 66%

Dew point: 36 °F

Location of ReykjavikLocation

Historic Weather in Reykjavik — Graph

°F

Reykjavik temperature yesterday

Maximum temperature yesterday: 59 °F (at 6:00 PM)
Minimum temperature yesterday: 43 °F (at 5:00 AM)
Average temperature yesterday: 51 °F

Past Weeks' High & Low Weather Summary

 TemperatureHumidityPressure
High63 °F (Jul 22, 2:00 PM)94% (Jul 20, 5:00 AM)30.12 "Hg (Jul 20, 5:00 AM)
Low43 °F (Jul 31, 5:00 AM)44% (Jul 31, 2:00 PM)29.47 "Hg (Jul 28, 1:00 PM)
Average55 °F77%29.88 "Hg
* Reported Jul 17 7:00 AM — Aug 1 7:00 AM, Reykjavik, Weather by CustomWeather, © 2014

Note: Actual official high and low records may vary slightly from our data, if they occured in-between our weather recording intervals... More about our weather records

Advertising

Reykjavik weather history for previous 24 hours

 ConditionsComfort  
Time TempWeatherWind HumidityBarometerVisibility
7:00 AM
Aug 1
46 °FSunny.3 mph66%29.95 "Hg10 mi
6:00 AM45 °FSunny.2 mph71%29.92 "Hg10 mi
5:00 AM46 °FSunny.3 mph71%29.92 "Hg10 mi
4:00 AM48 °FClear.6 mph66%29.92 "Hg10 mi
3:00 AM48 °FClear.6 mph71%29.92 "Hg10 mi
2:00 AM50 °FClear.7 mph67%29.92 "Hg10 mi
1:00 AM48 °FClear.1 mph66%29.92 "Hg10 mi
12:00 AM48 °FClear.8 mph66%29.89 "Hg10 mi
11:00 PM
Jul 31
50 °FClear.7 mph67%29.89 "Hg10 mi
10:00 PM52 °FSunny.8 mph62%29.89 "Hg10 mi
9:00 PM54 °FPassing clouds.14 mph58%29.86 "HgN/A
8:00 PM55 °FPassing clouds.15 mph59%29.86 "HgN/A
7:00 PM57 °FPassing clouds.17 mph51%29.86 "HgN/A
6:00 PM59 °FPassing clouds.16 mph45%29.86 "HgN/A
5:00 PM57 °FPassing clouds.18 mph48%29.86 "HgN/A
4:00 PM57 °FPassing clouds.17 mph48%29.86 "HgN/A
3:00 PM57 °FPassing clouds.18 mph48%29.83 "HgN/A
2:00 PM57 °FPassing clouds.16 mph44%29.86 "HgN/A
1:00 PM55 °FPassing clouds.15 mph47%29.86 "HgN/A
12:00 PM54 °FPassing clouds.12 mph47%29.86 "HgN/A
11:00 AM54 °FPassing clouds.8 mph51%29.86 "HgN/A
10:00 AM50 °FScattered clouds.9 mph54%29.86 "HgN/A
9:00 AM48 °FPartly sunny.7 mph62%29.86 "HgN/A
8:00 AM46 °FPartly sunny.2 mph71%29.86 "HgN/A
7:00 AM45 °FBroken clouds.5 mph81%29.86 "HgN/A
Weather by CustomWeather, © 2014

See weather overviewHow to use our weather pages